FW2237 Weather Reports


time (UTC)temp
C
wind
direction
speed
KPH
gust
KPH
rain 1hr
cm
rain 24hr
cm
rain mn
cm
humidity
%
barometer
mb
20260508074522 23 148 0.0 11.3 0.00 0.00 0.00 64 975.6
20260508073022 24 130 0.0 4.8 0.00 0.00 0.00 61 975.6
20260508071521 23 88 0.0 6.4 0.00 0.00 0.00 65 975.3
20260508070023 23 174 0.0 4.8 0.00 0.00 0.00 66 975.4
20260508064518 21 181 0.0 6.4 0.00 0.00 0.00 70 975.3
20260508063015 21 131 0.0 4.8 0.00 0.00 0.00 70 975.4
20260508061513 22 122 0.0 1.6 0.00 0.00 0.00 69 975.5
20260508060008 20 104 0.0 0.0 0.00 0.00 0.00 75 975.3
20260508054507 20 104 0.0 0.0 0.00 0.00 0.00 75 975.2
20260508053003 18 269 0.0 0.0 0.00 0.00 0.00 84 975.0
20260508051600 15 275 0.0 3.2 0.00 0.00 0.00 87 975.0
20260508044556 -17 0.0 0.0 0.00 0.00 0.00 975.0
20260508043101 -17 0.0 0.0 0.00 0.00 0.00 974.8
20260508041547 -17 0.0 0.0 0.00 0.00 0.00 974.5
20260508040043 -17 0.0 0.0 0.00 0.00 0.00 974.5
20260508034539 -17 274 0.0 0.0 0.00 0.00 0.00 974.3
20260508033036 11 272 0.0 0.0 0.00 0.00 0.00 93 974.2
20260508031533 12 272 0.0 0.0 0.00 0.00 0.00 93 974.1
20260508030042 12 272 0.0 0.0 0.00 0.00 0.00 92 973.8
20260508024533 12 272 0.0 1.6 0.00 0.00 0.00 93 973.7
20260508023028 12 272 0.0 0.0 0.00 0.00 0.00 92 973.7
20260508021529 13 272 0.0 0.0 0.00 0.00 0.00 92 973.6
20260508020023 13 272 0.0 1.6 0.00 0.00 0.00 92 973.5
20260508014522 13 202 0.0 0.0 0.00 0.00 0.00 91 973.4
20260508013021 14 202 0.0 0.0 0.00 0.00 0.00 92 973.5
20260508011520 13 201 0.0 0.0 0.00 0.00 0.00 92 973.6
20260508010025 13 201 0.0 0.0 0.00 0.00 0.00 92 973.4
20260508004620 13 199 0.0 0.0 0.00 0.00 0.00 91 973.7
20260508003018 13 189 0.0 0.0 0.00 0.00 0.00 90 973.6
20260508001514 14 188 0.0 0.0 0.00 0.00 0.00 89 973.6
20260508000010 15 188 0.0 0.0 0.00 0.00 0.00 88 973.8
20260507234506 15 188 0.0 0.0 0.00 0.00 0.00 88 974.1
20260507233004 15 188 0.0 0.0 0.00 0.00 0.00 88 974.6
20260507231502 15 131 0.0 1.6 0.00 0.00 0.00 89 974.9
20260507230112 15 141 0.0 1.6 0.00 0.00 0.00 88 975.2
20260507224558 15 123 0.0 3.2 0.00 0.00 0.00 89 975.3
20260507223056 15 273 1.6 6.4 0.00 0.00 0.00 88 975.4
20260507221552 15 82 0.0 8.0 0.00 0.00 0.00 87 975.8
20260507220051 16 248 0.0 0.0 0.00 0.00 0.00 85 975.9
20260507214551 16 248 0.0 0.0 0.00 0.00 0.00 85 975.1
20260507213058 16 248 0.0 1.6 0.00 0.00 0.00 84 974.4
20260507211554 15 279 0.0 0.0 0.00 0.00 0.00 85 973.8
20260507210050 15 279 0.0 0.0 0.00 0.00 0.00 85 973.8
20260507204555 15 279 0.0 1.6 0.00 0.00 0.00 85 974.1
20260507203049 15 283 0.0 0.0 0.00 0.00 0.00 85 974.3
20260507201555 16 283 0.0 0.0 0.00 0.00 0.00 84 974.5
20260507200052 16 283 0.0 0.0 0.00 0.00 0.00 83 974.7
20260507194553 16 283 0.0 1.6 0.00 0.00 0.00 81 974.2
20260507193046 16 281 0.0 0.0 0.00 0.00 0.00 80 973.9
20260507191608 16 281 0.0 1.6 0.00 0.00 0.00 79 973.6
20260507190046 17 281 0.0 0.0 0.00 0.00 0.00 78 973.3
20260507184555 17 133 0.0 3.2 0.00 0.00 0.00 78 973.4
20260507183047 17 180 0.0 3.2 0.00 0.00 0.00 77 973.1
20260507181543 17 205 0.0 1.6 0.00 0.00 0.00 76 973.2
20260507180043 17 128 0.0 3.2 0.00 0.00 0.00 75 973.6
20260507174544 18 150 0.0 3.2 0.00 0.00 0.00 74 973.2
20260507173041 18 67 0.0 4.8 0.00 0.00 0.00 74 972.8
20260507171547 18 63 0.0 4.8 0.00 0.00 0.00 72 972.6
20260507170039 19 52 1.6 8.0 0.00 0.00 0.00 71 972.8
20260507164552 19 114 0.0 4.8 0.00 0.00 0.00 71 973.2
20260507163038 20 94 0.0 6.4 0.00 0.00 0.00 70 973.0
20260507161539 20 172 0.0 6.4 0.00 0.00 0.00 68 973.0
20260507160037 20 280 0.0 8.0 0.00 0.00 0.00 67 972.9
20260507154536 21 82 1.6 8.0 0.00 0.00 0.00 66 972.8
20260507153035 21 319 1.6 8.0 0.00 0.00 0.00 65 973.0
20260507151537 21 4 0.0 4.8 0.00 0.00 0.00 66 973.2
20260507150037 21 197 0.0 6.4 0.00 0.00 0.00 64 973.2
20260507144534 21 340 0.0 4.8 0.00 0.00 0.00 64 972.8
20260507143054 21 288 1.6 8.0 0.00 0.00 0.00 63 972.7
20260507141552 22 127 0.0 6.4 0.00 0.00 0.00 62 972.8
20260507140034 21 168 0.0 11.3 0.00 0.00 0.00 63 972.7
20260507134530 21 169 4.8 12.9 0.00 0.00 0.00 61 972.9
20260507133033 22 83 0.0 9.7 0.00 0.00 0.00 61 973.1
20260507131536 22 122 3.2 8.0 0.00 0.00 0.00 59 973.1
20260507130038 22 86 3.2 11.3 0.00 0.00 0.00 59 973.4
20260507124527 22 100 4.8 14.5 0.00 0.00 0.00 58 973.5
20260507123023 22 134 0.0 9.7 0.00 0.00 0.00 56 973.6
20260507121523 22 1 3.2 11.3 0.00 0.00 0.00 57 973.7
20260507120022 22 132 4.8 11.3 0.00 0.00 0.00 58 973.8
20260507114522 22 126 1.6 14.5 0.00 0.00 0.00 59 973.6
20260507113019 22 53 3.2 11.3 0.00 0.00 0.00 57 973.7
20260507111518 22 115 4.8 14.5 0.00 0.00 0.00 56 973.6
20260507110021 22 131 3.2 16.1 0.00 0.00 0.00 57 973.8
20260507104516 22 96 4.8 17.7 0.00 0.00 0.00 56 974.1
20260507103016 22 166 8.0 16.1 0.00 0.00 0.00 53 974.0
20260507101515 23 198 1.6 14.5 0.00 0.00 0.00 54 974.0
20260507100011 22 111 3.2 16.1 0.00 0.00 0.00 53 974.0
20260507094509 22 140 4.8 12.9 0.00 0.00 0.00 51 973.9
20260507093009 22 342 3.2 17.7 0.00 0.00 0.00 51 974.1
20260507091512 22 94 3.2 17.7 0.00 0.00 0.00 53 974.0
20260507090007 21 124 3.2 14.5 0.00 0.00 0.00 52 974.0
20260507084505 21 206 4.8 22.5 0.00 0.00 0.00 53 974.1
20260507083003 21 133 4.8 14.5 0.00 0.00 0.00 53 974.0
20260507081502 21 82 6.4 11.3 0.00 0.00 0.00 53 974.2
20260507080003 21 128 3.2 14.5 0.00 0.00 0.00 55 974.2